FENGYUN 3C

Last updated on Mon Sep 21 2026 00:02:41 GMT+0000 (Coordinated Universal Time)

1 39260U 13052A 26263.59390954 .00000068 00000+0 55553-4 0 9994 2 39260 98.5111 233.1418 0015754 107.2759 253.0141 14.15772689672069
UTC large
Height (km)
Speed (km/s)
/
Latitude / Longitude
Inclination (degrees)
Orbital Period (minutes)
Azimuth
Elevation
Range (km)
Doppler Factor

Next 0 passes for location: London (51.5072 / 0.1276)

No passes found over London.
FENGYUN 3C